Regional Weather Roundup
Issued by NWS

Home | Current Version | Previous Version | Text Only | Print | Product List | Glossary Off
Versions: 1 2 3 4 5 6 7 8 9 10 11 12 13 14 15 16 17 18 19 20 21 22 23 24 25 26 27 28 29 30 31 32 33 34 35 36 37 38 39 40 41 42 43 44 45 46 47 48 49 50

000
ASUS44 KFWD 302315
RWRTX
NORTH TEXAS HOURLY WEATHER ROUNDUP
NATIONAL WEATHER SERVICE FORT WORTH TX
600 PM CDT THU JUL 30 2015

NOTE: "FAIR" INDICATES FEW OR NO CLOUDS BELOW 12,000 FEET WITH NO
SIGNIFICANT WEATHER AND/OR OBSTRUCTIONS TO VISIBILITY.

TXZ118-119-310000-
DALLAS/FORT WORTH METROPLEX

CITY           SKY/WX    TMP DP  RH WIND       PRES   REMARKS
DFW AIRPORT    MOSUNNY  102  62  26 N13       29.98F HX 104
DALLAS LOVE    MOSUNNY  102  62  26 CALM      29.98F HX 104
FTW MEACHAM    MOSUNNY  103  60  24 NE6       29.99F HX 104
DAL-EXECUTIVE  SUNNY    102  61  25 N3        29.98F HX 103
FTW-ALLIANCE   MOSUNNY  101  61  26 E6        30.00F HX 102
FTW-NAS-JRB    SUNNY    103  60  24 VRB3      29.99F HX 104
FTW-SPINKS     MOSUNNY  100  59  25 CALM      30.02S HX 100
ARLINGTON      MOSUNNY  102  59  24 CALM      29.99F HX 102
GRAND PRAIRIE  SUNNY    100  64  30 CALM      30.00F HX 103
ADDISON        MOSUNNY   99  61  28 CALM      30.00F HX  99
MESQUITE       SUNNY    100  61  27 N8        29.99F HX 101
LANCASTER      SUNNY    100  58  24 CALM      29.99F HX 100
$$

TXZ091>094-102>105-117-120-121-131>134-310000-
NORTH CENTRAL TEXAS

CITY           SKY/WX    TMP DP  RH WIND       PRES   REMARKS
SHRMAN/DENISON SUNNY     98  67  36 NE6       30.03F HX 103
GAINESVILLE    SUNNY     97  66  36 NE6       30.05S HX 100
BOWIE          SUNNY     98  59  27 CALM      30.03F HX  97
DECATUR        SUNNY     98  61  28 CALM      30.03F HX  99
DENTON         SUNNY    100  61  27 CALM      30.00F HX 101
MCKINNEY       SUNNY    100  63  29 CALM      30.00F HX 102
GREENVILLE     SUNNY    100  59  25 NW5       30.00S HX 100
ROCKWALL       SUNNY    100  65  32 N7        29.99S HX 103
TERRELL        SUNNY    101  64  29 NE7       29.99F HX 104
WAXAHACHIE     SUNNY    100  64  31 N5        30.00F HX 102
CLEBURNE       SUNNY     99  63  30 E7        30.02S HX 100
GRANBURY       SUNNY    101  58  23 CALM      30.01F HX 101
$$

TXZ083>090-098>101-113>116-127>130-139>142-154-155-310000-
WESTERN NORTH TEXAS

CITY           SKY/WX    TMP DP  RH WIND       PRES   REMARKS
WICHITA FALLS  MOSUNNY  100  64  30 E14       30.01F HX 102
WF-KICKAPOO    SUNNY    100  59  25 NE8       30.02F HX 100
VERNON         SUNNY     97  59  28 NE7G17    30.05F HX  97
ABILENE        MOSUNNY   94  66  39 E10       30.06F HX  97
ABILENE-DYESS  MOSUNNY   98  66  35 E14       30.04F HX 101
BRECKENRIDGE   MOSUNNY   99  63  29 SE10G16   30.03F HX 101
GRAHAM         MOSUNNY   96  67  39 SE7       30.01F HX 100
MINERAL WELLS  SUNNY    100  61  27 NE5       30.00F HX 101
STEPHENVILLE   SUNNY     98  59  26 SE5       30.06S HX  98
COMANCHE       SUNNY     98  64  32 NE5       30.04F HX  99
BROWNWOOD      LGT RAIN  95  63  34 NE5       30.03F HX  96
COLEMAN        SUNNY     97  64  34 E5        30.05F HX  99
BRADY          MOSUNNY   99  59  26 E3        30.04F HX  98
$$

TXZ143>147-156>162-174-175-310000-
CENTRAL TEXAS

CITY           SKY/WX    TMP DP  RH WIND       PRES   REMARKS
WACO           SUNNY    100  63  29 CALM      29.97F HX 102
WACO-TSTC      SUNNY    100  63  28 E5        29.97F HX 102
HILLSBORO      MOSUNNY  100  60  26 CALM      29.99S HX 100
CORSICANA      SUNNY    102  63  27 E6        29.98F HX 104
MEXIA          SUNNY    100  65  31 E8        29.97F HX 103
HEARNE         SUNNY    101  66  32 CALM      29.97S HX 104
CAMERON        SUNNY    100  65  32 CALM      29.96F HX 102
TEMPLE         SUNNY    100  61  27 CALM      29.98F HX 101
KILLEEN        SUNNY     98  60  27 VRB2      29.99F HX  98
KILLEEN-SKYLRK SUNNY    100  63  28 NW3       29.98F HX 102
FORT HOOD      SUNNY     99  62  29 E3        29.98F HX 100
GATESVILLE     SUNNY    100  61  27 CALM      30.01F HX 101
HAMILTON       SUNNY     99  58  25 E7        30.03F HX  98
LAMPASAS       SUNNY     98  60  27 E6        30.01F HX  98
$$

TXZ095>097-106>112-122>126-135>138-148>153-164>167-310000-
EAST TEXAS

CITY           SKY/WX    TMP DP  RH WIND       PRES   REMARKS
PARIS          MOSUNNY   93  70  46 NE22G29   30.03R HX  99
SULPHUR SPRNGS PTSUNNY  102  63  27 E7        30.01S HX 104
MOUNT PLEASANT SUNNY     99  62  30 NE9       30.00S HX 100
GILMER         SUNNY     96  68  39 E3        29.98S HX 101
MINEOLA        SUNNY    100  57  23 W5        29.99F HX  99
TYLER          SUNNY    103  66  30 N8        29.98F HX 107
LONGVIEW       MOSUNNY   99  71  40 NE7       29.97S HX 107
MARSHALL       MOSUNNY   98  70  41 W7        30.01R HX 105
ATHENS         MOSUNNY   99  64  32 N7        29.96F HX 101
PALESTINE      MOSUNNY   99  64  31 N3        29.98F HX 102
JACKSONVILLE   SUNNY    100  61  27 N5        30.01S HX 100
HENDERSON      MOSUNNY  100  68  35 MISG      29.98F HX 105
CENTER         FAIR      96  71  44 NW5       29.95F HX 103
NACOGDOCHES    MOSUNNY   99  70  39 N6        29.96S HX 105
LUFKIN         CLOUDY    96  70  42 S8        29.96S HX 102
$$

SUPPLEMENTAL OBSERVATIONS (CENTRAL)

CITY           SKY/WX    TMP DP  RH WIND       PRES   REMARKS
LAKE TEXOMA      N/A     97  64  34 NW3         N/A  HX  99
CADDO GRASSLND   N/A     93  63  36 NE8         N/A  HX  94
PAT MAYSE LAKE   N/A     90  68  48 N16         N/A  HX  93
GREENVILLE       N/A    100  61  27 N8          N/A  HX 101
CEDAR HILL       N/A    104  61  24 W1          N/A  HX 105
ATHENS           N/A    102  64  29 N2          N/A  HX 105
LAKE LIMESTONE   N/A    100  63  28 E5          N/A  HX 102
MCGREGOR         N/A    102  57  22 NE3         N/A  HX 101
TEMPLE           N/A    100  61  27 E6          N/A  HX 101
$$

SUPPLEMENTAL OBSERVATIONS (WEST)

CITY           SKY/WX    TMP DP  RH WIND       PRES   REMARKS
MILLERS CREEK    N/A    102  59  24 SE5         N/A  HX 102
POSSUM KINGDOM   N/A    100  63  28 E5G13       N/A  HX 102
LBJ GRASSLAND    N/A    102  64  29 N2          N/A  HX 105
GRANBURY         N/A    106  59  21 W1G9        N/A  HX 106
COMANCHE         N/A     97  59  28 E6          N/A  HX  96
HAMBY            N/A     97  61  30 SE9         N/A  HX  97
IVIE RESERVOIR   N/A     99  57  25 E8G17       N/A  HX  97
COLORADO BEND    N/A     99  57  25 S8G18       N/A  HX  97
$$

SUPPLEMENTAL OBSERVATIONS (EAST)

CITY           SKY/WX    TMP DP  RH WIND       PRES   REMARKS
CLARKSVILLE      N/A     88  68  51 NE7G16      N/A  HX  91
TEXARKANA        N/A     81  77  89 S3G12       N/A
LINDEN           N/A     90  72  55 E7G17       N/A  HX  96
CADDO LAKE       N/A     99  72  41 NE3         N/A  HX 107
GILMER           N/A     99  66  34 NE2         N/A  HX 102
HENDERSON        N/A     99  66  34 NE9         N/A  HX 102
N SABINE NF      N/A     99  72  41 MISG        N/A  HX 107
S SABINE NF      N/A     88  72  58 CALM        N/A  HX  94
$$

SUPPLEMENTAL OBSERVATIONS ARE A COLLECTION OF AUTOMATED INSTRUMENTS
THAT ARE MAINTAINED BY A VARIETY OF FEDERAL AND STATE AGENCIES.
CERTAIN ELEMENTS...SUCH AS HUMIDITY VALUES AND SUSTAINED WIND
SPEEDS...MAY BE APPROXIMATED.



USA.gov is the U.S. government's official web portal to all federal, state and local government web resources and services.